• In Netherlands
  • List of Countries
  • For 7 days
  • Water Temperature
  • Satellite Maps
  • Weather Map
  • Weather Widgets
  • user-avatar
    Login

    Hourly Weather Bruges

    Today, 28 February, Tuesday

    Time Temperature Precipitation Wind Pressure Humidity
    00:00 +1°C° 0.1 mm 9 mps 740 mmHg 82%
    01:00 +1°C° 0.2 mm 9 mps 740 mmHg 81%
    02:00 +1°C° 0.2 mm 9 mps 739 mmHg 81%
    03:00 +1°C° 0.2 mm 9 mps 739 mmHg 80%
    04:00 +1°C° 0.2 mm 9 mps 739 mmHg 80%
    05:00 +1°C° 0.2 mm 9 mps 739 mmHg 79%
    06:00 +1°C° 0.2 mm 9 mps 739 mmHg 79%
    07:00 +1°C° 0.1 mm 9 mps 740 mmHg 77%
    08:00 +2°C° 0.1 mm 9 mps 740 mmHg 76%
    09:00 +4°C° 0.1 mm 8 mps 740 mmHg 74%
    10:00 +4°C° 0.1 mm 8 mps 740 mmHg 72%
    11:00 +5°C° 0.1 mm 7 mps 740 mmHg 71%
    12:00 +6°C° 0.1 mm 7 mps 740 mmHg 69%
    13:00 +6°C° 0.1 mm 7 mps 740 mmHg 67%
    14:00 +6°C° 0.1 mm 7 mps 741 mmHg 64%
    15:00 +7°C° 0.1 mm 6 mps 741 mmHg 62%
    16:00 +5°C° 0.1 mm 6 mps 741 mmHg 67%
    17:00 +4°C° 0.1 mm 6 mps 742 mmHg 73%
    18:00 +3°C° 0.1 mm 6 mps 742 mmHg 78%
    19:00 +3°C° 0.5 mm 7 mps 743 mmHg 80%
    20:00 +3°C° 0.5 mm 7 mps 743 mmHg 83%
    21:00 +2°C° 0.5 mm 8 mps 743 mmHg 85%
    22:00 +2°C° 0.2 mm 8 mps 743 mmHg 85%
    23:00 +2°C° 0.2 mm 8 mps 743 mmHg 86%

    Tomorrow, 1 March, Wednesday

    Time Temperature Precipitation Wind Pressure Humidity
    00:00 +2°C° 0.2 mm 8 mps 743 mmHg 86%
    01:00 +2°C° 0.1 mm 8 mps 744 mmHg 86%
    02:00 +2°C° 0.1 mm 9 mps 744 mmHg 85%
    03:00 +2°C° 0.1 mm 9 mps 744 mmHg 85%
    04:00 +2°C° 0.1 mm 9 mps 745 mmHg 84%
    05:00 +3°C° 0.1 mm 10 mps 745 mmHg 84%
    06:00 +3°C° 0.1 mm 10 mps 746 mmHg 83%
    07:00 +3°C° 0.1 mm 9 mps 747 mmHg 81%
    08:00 +4°C° 0.1 mm 8 mps 748 mmHg 79%
    09:00 +5°C° 0.1 mm 8 mps 749 mmHg 77%
    10:00 +5°C° 0 mm 7 mps 750 mmHg 72%
    11:00 +6°C° 0 mm 7 mps 750 mmHg 67%
    12:00 +8°C° 0 mm 6 mps 750 mmHg 61%
    13:00 +8°C° 0.2 mm 6 mps 750 mmHg 67%
    14:00 +7°C° 0.2 mm 6 mps 749 mmHg 73%
    15:00 +7°C° 0.2 mm 6 mps 749 mmHg 79%
    16:00 +6°C° 0.7 mm 7 mps 748 mmHg 83%
    17:00 +5°C° 0.7 mm 7 mps 747 mmHg 87%
    18:00 +5°C° 0.7 mm 7 mps 746 mmHg 91%
    19:00 +6°C° 0.1 mm 8 mps 746 mmHg 89%
    20:00 +6°C° 0.1 mm 10 mps 746 mmHg 86%
    21:00 +6°C° 0.1 mm 11 mps 746 mmHg 84%
    22:00 +6°C° 0 mm 11 mps 746 mmHg 83%
    23:00 +4°C° 0 mm 11 mps 747 mmHg 82%

    Day after tomorrow, 2 March, Thursday

    Time Temperature Precipitation Wind Pressure Humidity
    00:00 +4°C° 0 mm 11 mps 747 mmHg 81%
    01:00 +3°C° 0.1 mm 11 mps 748 mmHg 80%
    02:00 +3°C° 0.1 mm 12 mps 749 mmHg 78%
    03:00 +3°C° 0.1 mm 12 mps 750 mmHg 77%
    04:00 +2°C° 0 mm 12 mps 751 mmHg 74%
    05:00 +2°C° 0 mm 11 mps 752 mmHg 71%
    06:00 +2°C° 0 mm 11 mps 753 mmHg 68%
    07:00 +3°C° 0 mm 11 mps 753 mmHg 67%
    08:00 +4°C° 0 mm 11 mps 754 mmHg 66%
    09:00 +6°C° 0 mm 11 mps 755 mmHg 65%
    10:00 +7°C° 0 mm 10 mps 755 mmHg 63%
    11:00 +8°C° 0 mm 10 mps 756 mmHg 61%
    12:00 +10°C° 0 mm 9 mps 756 mmHg 59%
    13:00 +10°C° 0 mm 9 mps 756 mmHg 61%
    14:00 +8°C° 0 mm 10 mps 756 mmHg 63%
    15:00 +8°C° 0 mm 10 mps 756 mmHg 64%
    16:00 +7°C° 0 mm 9 mps 756 mmHg 68%
    17:00 +6°C° 0 mm 8 mps 756 mmHg 71%
    18:00 +5°C° 0 mm 8 mps 756 mmHg 75%
    19:00 +5°C° 0 mm 7 mps 755 mmHg 74%
    20:00 +5°C° 0 mm 7 mps 755 mmHg 74%
    21:00 +4°C° 0 mm 7 mps 755 mmHg 73%
    22:00 +4°C° 0 mm 6 mps 755 mmHg 74%
    23:00 +4°C° 0 mm 6 mps 754 mmHg 75%

    3 March, Friday

    Time Temperature Precipitation Wind Pressure Humidity
    00:00 +5°C° 0 mm 5 mps 754 mmHg 76%
    01:00 +5°C° 0 mm 5 mps 753 mmHg 79%
    02:00 +5°C° 0 mm 5 mps 752 mmHg 82%
    03:00 +3°C° 0 mm 5 mps 751 mmHg 84%
    04:00 +5°C° 0.3 mm 5 mps 750 mmHg 87%
    05:00 +5°C° 0.3 mm 5 mps 749 mmHg 90%
    06:00 +5°C° 0.3 mm 5 mps 748 mmHg 93%
    07:00 +4°C° 1 mm 6 mps 748 mmHg 93%
    08:00 +5°C° 1 mm 6 mps 747 mmHg 94%
    09:00 +7°C° 1 mm 6 mps 746 mmHg 94%
    10:00 +8°C° 0.2 mm 6 mps 745 mmHg 92%
    11:00 +9°C° 0.2 mm 6 mps 745 mmHg 90%
    12:00 +10°C° 0.2 mm 6 mps 744 mmHg 88%
    13:00 +10°C° 0 mm 6 mps 744 mmHg 85%
    14:00 +11°C° 0 mm 6 mps 743 mmHg 82%
    15:00 +11°C° 0 mm 6 mps 742 mmHg 80%
    16:00 +10°C° 0.1 mm 5 mps 742 mmHg 84%
    17:00 +9°C° 0.1 mm 5 mps 741 mmHg 88%
    18:00 +8°C° 0.1 mm 4 mps 741 mmHg 92%
    19:00 +8°C° 0.3 mm 4 mps 741 mmHg 93%
    20:00 +8°C° 0.3 mm 3 mps 741 mmHg 95%
    21:00 +8°C° 0.3 mm 3 mps 740 mmHg 97%
    22:00 +7°C° 1.9 mm 4 mps 741 mmHg 95%
    23:00 +6°C° 1.9 mm 5 mps 741 mmHg 94%

    4 March, Saturday

    Time Temperature Precipitation Wind Pressure Humidity
    00:00 +5°C° 1.9 mm 6 mps 741 mmHg 93%
    01:00 +5°C° 0.4 mm 6 mps 741 mmHg 93%
    02:00 +5°C° 0.4 mm 6 mps 741 mmHg 93%
    03:00 +5°C° 0.4 mm 6 mps 742 mmHg 92%
    04:00 +4°C° 0.2 mm 6 mps 742 mmHg 92%
    05:00 +4°C° 0.2 mm 6 mps 742 mmHg 92%
    06:00 +4°C° 0.2 mm 6 mps 742 mmHg 92%
    07:00 +5°C° 0 mm 7 mps 742 mmHg 87%
    08:00 +5°C° 0 mm 8 mps 742 mmHg 83%
    09:00 +5°C° 0 mm 9 mps 742 mmHg 79%
    10:00 +6°C° 0 mm 9 mps 742 mmHg 75%
    11:00 +7°C° 0 mm 10 mps 742 mmHg 71%
    12:00 +8°C° 0 mm 11 mps 742 mmHg 67%
    13:00 +7°C° 0.4 mm 11 mps 741 mmHg 70%
    14:00 +7°C° 0.4 mm 11 mps 741 mmHg 74%
    15:00 +6°C° 0.4 mm 11 mps 741 mmHg 78%
    16:00 +6°C° 0.3 mm 11 mps 741 mmHg 80%
    17:00 +6°C° 0.3 mm 11 mps 742 mmHg 81%
    18:00 +4°C° 0.3 mm 11 mps 742 mmHg 83%
    19:00 +5°C° 0.3 mm 10 mps 743 mmHg 84%
    20:00 +5°C° 0.3 mm 10 mps 744 mmHg 85%
    21:00 +5°C° 0.3 mm 10 mps 744 mmHg 86%
    22:00 +5°C° 0.2 mm 9 mps 745 mmHg 87%
    23:00 +4°C° 0.2 mm 8 mps 746 mmHg 89%

    5 March, Sunday

    Time Temperature Precipitation Wind Pressure Humidity
    00:00 +4°C° 0.2 mm 7 mps 747 mmHg 91%
    01:00 +4°C° 0.1 mm 7 mps 748 mmHg 91%
    02:00 +4°C° 0.1 mm 6 mps 749 mmHg 90%
    03:00 +4°C° 0.1 mm 6 mps 749 mmHg 90%
    04:00 +3°C° 0 mm 6 mps 750 mmHg 91%
    05:00 +3°C° 0 mm 6 mps 750 mmHg 92%
    06:00 +2°C° 0 mm 6 mps 751 mmHg 93%
    07:00 +3°C° 0 mm 6 mps 751 mmHg 89%
    08:00 +4°C° 0 mm 6 mps 752 mmHg 86%
    09:00 +5°C° 0 mm 6 mps 752 mmHg 82%
    10:00 +7°C° 0.1 mm 5 mps 752 mmHg 78%
    11:00 +8°C° 0.1 mm 5 mps 752 mmHg 74%
    12:00 +9°C° 0.1 mm 5 mps 752 mmHg 70%
    13:00 +10°C° 0.2 mm 4 mps 752 mmHg 70%
    14:00 +10°C° 0.2 mm 4 mps 752 mmHg 69%
    15:00 +10°C° 0.2 mm 3 mps 752 mmHg 68%
    16:00 +9°C° 0.1 mm 3 mps 752 mmHg 74%
    17:00 +8°C° 0.1 mm 2 mps 753 mmHg 79%
    18:00 +7°C° 0.1 mm 2 mps 753 mmHg 85%
    19:00 +6°C° 0 mm 2 mps 753 mmHg 87%
    20:00 +5°C° 0 mm 2 mps 753 mmHg 89%
    21:00 +4°C° 0 mm 3 mps 754 mmHg 90%
    22:00 +4°C° 0 mm 3 mps 754 mmHg 91%
    23:00 +4°C° 0 mm 2 mps 754 mmHg 91%
    Show more